Regional Weather Roundup
Issued by NWS

Home | Current Version | Previous Version | Graphics & Text | Print | Product List | Glossary On
Versions: 1 2 3 4 5 6 7 8 9 10 11 12 13 14 15 16 17 18 19 20 21 22 23 24 25 26 27 28 29 30 31 32 33 34 35 36 37 38 39 40 41 42 43 44 45 46 47 48 49 50
000
ASUS45 KTFX 312210
RWRMT
MONTANA REGIONAL WEATHER ROUNDUP
NATIONAL WEATHER SERVICE GREAT FALLS MT
400 PM MDT FRI JUL 31 2015

NOTE: "FAIR" INDICATES FEW OR NO CLOUDS BELOW 12000 FEET WITH NO
SIGNIFICANT WEATHER AND/OR OBSTRUCTIONS TO VISIBILITY.

MTZ001>007-043-312300-
WEST OF THE DIVIDE

CITY           SKY/WX    TMP DP  RH WIND       PRES   REMARKS
KALISPELL      CLEAR     93  35  13 S14       30.07F
MISSOULA       SUNNY     92  32  12 SW5       30.11F
BUTTE          SUNNY     85  30  13 VRB6      30.28F
MULLAN PASS    SUNNY     83  29  14 VRB5      30.33F
DEER LODGE       N/A     86  30  13 SE6       30.26F
EUREKA           N/A     97  30   9 W14G21    30.03F HX  91
HAMILTON         N/A     91  41  17 E2        30.14F
LIBBY            N/A     97  28   9 W8G21     30.04F HX  91
PLAINS           N/A     99  35  10 SW7       30.05F HX  93
RONAN            N/A     93  35  13 NW2       30.15F
$$

MTZ008-052>055-312300-
SOUTHWEST MONTANA

CITY           SKY/WX    TMP DP  RH WIND       PRES   REMARKS
BOZEMAN        SUNNY     89  41  18 NE6       30.21F
DILLON         SUNNY     89  33  13 NE9       30.24F
W YELLOWSTONE  SUNNY     77  32  19 SW6       30.36F
THREE FORKS      N/A     91  29  11 SW10      30.16F
TWIN BRIDGES     N/A     88  35  15 S7        30.19F
$$

MTZ009-010-012-014-046-048-049-054-312300-
EAST SLOPES AND CENTRAL MONTANA

CITY           SKY/WX    TMP DP  RH WIND       PRES   REMARKS
CUT BANK       SUNNY     92  22   8 W14G25    30.11F
GREAT FALLS    SUNNY     91  24   9 NW6       30.13F
MALMSTROM AFB  SUNNY     90  27  10 W10       30.12F
HELENA         SUNNY     94  29  10 NW8       30.14F
$$

MTZ011-013-016-021-045-047-050-051-312300-
NORTH CENTRAL MONTANA

CITY           SKY/WX    TMP DP  RH WIND       PRES   REMARKS
HAVRE          SUNNY     93  42  17 NW8       30.04F
LEWISTOWN      SUNNY     89  38  16 NW10      30.17F
CHINOOK          N/A     91  39  16 W13       30.04F
FORT BENTON      N/A     93  34  12 NW6       30.08F
$$

MTZ017>020-022>027-061-062-312300-
NORTHEAST MONTANA

CITY           SKY/WX    TMP DP  RH WIND       PRES   REMARKS
GLASGOW        SUNNY     92  43  18 S7        30.02F
JORDAN           N/A     95  35  12 W14G25    30.03F HX  90
SIDNEY         SUNNY    N/A N/A N/A SW5       30.05F
WOLF POINT     SUNNY     95  44  17 VRB5      30.02F HX  91
MALTA            N/A     92  50  23 W3        30.00F
PLENTYWOOD       N/A     84  46  26 NE3       30.08F
POPLAR           N/A     91  45  19 SE6       30.04F
SCOBEY           N/A     87  46  23 NE2       30.07F
$$

MTZ028>42-056>058-312300-
SOUTHCENTRAL AND SOUTHEAST MONTANA

CITY           SKY/WX    TMP DP  RH WIND       PRES   REMARKS
BAKER          SUNNY     92  38  15 S14       30.11F
BILLINGS       MOSUNNY   93  35  13 S6        30.11F
LIVINGSTON     SUNNY     93  19   7 W18G26    30.19F
MILES CITY     SUNNY     97  41  14 VRB5      30.03F HX  92
EKALAKA          N/A     90  36  14 NE3       30.10F
FORSYTH          N/A     95  36  12 W10       30.04F HX  90
LAUREL           N/A     96  33  11 SW8       30.08F HX  90
ROUNDUP          N/A     94  29  10 W8        30.01F
$$

REGIONAL REPORTS...DAKOTAS

CITY           SKY/WX    TMP DP  RH WIND       PRES   REMARKS
WILLISTON      SUNNY     88  44  21 E8        30.08F
MINOT          SUNNY     83  46  27 NW10      30.07S
DICKINSON      SUNNY     88  43  20 E5        30.09F
BEACH          FAIR      88  39  18 E5        30.11F
CROSBY         FAIR      81  45  28 NW5       30.10S
BISMARCK       SUNNY     89  50  26 NW10G20   30.07F
GRAND FORKS    MOSUNNY   82  49  31 NW15G21   29.99F
FARGO          SUNNY     83  54  36 NW14      30.02F
BUFFALO SD       N/A     91  39  16 S8        30.06F
RAPID CITY     SUNNY     87  53  31 NE9       30.15F
$$

REGIONAL REPORTS...WYOMING/IDAHO/WASHINGTON

CITY           SKY/WX    TMP DP  RH WIND       PRES   REMARKS
GILLETTE       SUNNY     90  38  16 CALM      30.16F
SHERIDAN       SUNNY     93  36  13 W5        30.13F
BUFFALO WY     SUNNY     90  36  14 VRB5      30.20F
CODY           SUNNY     88  34  14 E7        30.20F
YELLOWSTONE LA   N/A     75  34  22 VRB3      30.46F
IDAHO FALLS    SUNNY     91  29  11 VRB5      30.23F
SALMON         SUNNY     91  30  11 NE5       30.14F
BOISE          SUNNY     96  41  15 NW7       30.09F HX  92
SPOKANE        MOSUNNY   99  26   7 SW20      30.04F HX  92
$$

REGIONAL REPORTS...ALBERTA

CITY           SKY/WX    TMP DP  RH WIND       PRES   REMARKS
EDMONTON       SUNNY     81  52  36 SW7       29.98F
CALGARY        MOSUNNY   88  45  22 SE14      30.04F
LETHBRIDGE     MOSUNNY   91  37  15 SW12G26   30.03F
MEDICINE HAT   MOSUNNY   91  37  15 SW7       30.02F
CARDSTON         N/A     90  34  13 W3          N/A
ONEFOUR          N/A     86  39  19 NW10        N/A
$$

REGIONAL REPORTS...SASKATCHEWAN

CITY           SKY/WX    TMP DP  RH WIND       PRES   REMARKS
SWIFT CURRENT  SUNNY     81  46  30 S9        30.08F
REGINA         SUNNY     81  50  34 VRB2      30.09F
SASKATOON      MOSUNNY   79  46  31 SW6       30.07F
CYPRESS HILLS    N/A     81  43  26 W7          N/A
VAL MARIE        N/A     88  43  20 W6          N/A
ROCKGLEN         N/A     82  48  30 NE6         N/A
ASSINIBOIA       N/A     81  50  34 S10         N/A
$$



USA.gov is the U.S. government's official web portal to all federal, state and local government web resources and services.